Vertical_Velocity
-2 -1 -3 -1 -13 -12 6 2 14 7 -4 -1 -1 -2 0 -8 -0 -6 2 2 -0 0 0 -0 1 -0 2 1 1 0 0 0 0 0 1 2 -0 -1 -1 -0 -1 1 0 0 0 1 -1 0 -0
-2 -2 -1 -4 -13 -13 10 5 19 -9 -5 -3 -9 -4 -4 3 -5 -0 0 3 1 -0 1 -1 1 -0 -0 0 1 1 1 1 1 0 1 1 0 1 -1 -0 -1 0 -1 -2 2 1 1 -1 0
0 -3 -7 -12 -3 -12 10 -3 21 -2 -2 -1 -1 1 -10 18 3 1 1 2 1 -2 -0 0 0 0 -0 -0 1 2 1 -0 0 2 1 0 0 1 1 1 -1 -1 -1 -1 -1 -1 1 1 -0
1 -3 -7 -24 -5 15 9 2 12 4 0 -1 8 -12 3 6 4 3 -0 1 2 2 -1 -1 0 -0 1 -1 -0 1 1 1 0 2 2 0 0 -1 0 -0 1 -1 1 -0 -1 0 -1 -1 -1
-9 -2 -9 -12 8 11 6 7 3 -1 -3 -0 -7 8 3 6 5 3 0 2 2 3 1 -1 0 0 0 2 -1 1 1 -1 0 2 2 -1 1 0 1 -0 1 -1 1 -0 -0 -0 0 -2 -1
-9 1 -20 -17 13 2 -3 19 -7 5 -0 -7 -6 -3 -5 7 1 3 -1 -1 -1 1 1 -0 -1 -0 0 1 0 -0 1 1 -0 -0 3 -0 0 3 -0 1 1 2 -0 1 -1 -1 -1 0 -0
1 -3 -2 -16 15 1 1 25 -0 7 -6 2 6 -11 -9 -3 1 1 0 -3 -1 -2 1 2 -1 -2 -1 1 -1 0 -1 2 -0 1 0 3 0 1 0 -0 1 2 -0 -1 1 0 -0 0 -0
5 -24 -1 5 21 15 -3 27 -10 0 9 -13 -4 -5 3 17 0 2 2 -2 -1 -1 -0 4 2 -1 -0 1 0 2 1 1 1 0 1 0 1 2 1 -1 1 0 0 -1 1 1 -0 0 1
6 -26 -25 32 2 40 -2 1 3 2 -8 -4 -7 -3 -0 12 -1 2 1 -2 -3 -5 2 0 3 1 -0 -0 -1 1 0 1 1 1 1 -1 1 2 1 1 -1 0 1 -0 -1 1 1 1 1
-5 -12 -1 18 11 1 -10 -14 17 -6 -5 2 -6 2 4 4 4 -3 1 5 1 -1 2 7 4 1 1 -0 0 1 1 1 1 -1 -2 2 0 -0 3 2 -0 0 -0 0 1 -1 -1 1 1
6 -55 53 12 10 -14 7 -2 -2 3 -17 7 11 -0 -2 -6 5 0 -2 6 11 14 -0 -1 2 4 2 2 1 4 0 2 1 0 -1 1 1 1 -0 2 1 -2 -0 -0 -0 1 1 -1 0
-30 -3 7 21 5 -3 -5 2 -7 -10 39 -10 4 -11 -7 0 7 5 2 7 1 -2 4 5 1 -2 3 1 3 -1 1 1 2 0 -1 -0 0 1 3 1 -4 1 -0 -1 -1 -1 1 -0 0
-10 17 -2 -11 -4 -1 -11 -7 -5 -29 18 3 3 -0 -1 0 1 6 4 -1 1 -2 3 -1 2 1 5 -0 2 1 1 -0 -0 1 -1 0 1 -0 3 -2 3 1 -0 -2 -1 -0 -0 -0 -0
19 2 -5 5 -1 -1 -8 -5 -13 42 6 8 -2 7 -1 -1 1 5 -0 4 -1 3 2 5 1 1 -1 1 -1 0 -1 1 -1 3 -3 1 1 -2 2 1 4 0 2 -0 -0 0 -1 0 0
-0 -4 2 7 11 4 10 -12 -46 53 11 8 9 2 -8 0 -2 1 5 4 2 5 3 4 3 -3 -1 6 -1 1 3 -1 1 1 -2 3 2 -1 -2 2 3 2 1 2 -0 1 -1 -0 -0
0 8 2 15 -9 12 12 -21 5 13 10 -9 9 2 -3 1 4 1 -0 7 1 1 -4 6 -1 2 -3 1 3 3 -1 2 -1 1 -1 -0 2 1 -3 3 2 3 1 0 2 1 0 -1 -0
2 -7 2 -12 11 1 20 -3 8 5 12 -15 -3 9 0 -1 -1 -0 0 1 7 7 5 3 1 2 7 -1 -3 2 -1 -2 -2 0 1 0 3 -0 -2 3 -1 1 1 1 1 2 0 -0 -1
-2 -5 -1 -10 17 -1 14 -16 -0 21 10 13 13 7 -11 -4 -4 11 4 5 7 15 6 -1 5 4 1 -3 -6 -4 -3 -2 -2 3 4 1 1 1 -3 -0 2 1 2 2 2 1 1 1 -0
3 -7 -4 3 6 11 9 -2 -22 29 -4 -1 12 17 16 0 24 -9 -8 0 8 10 7 6 5 -3 -6 5 -0 -3 7 1 1 4 0 -0 -1 0 1 0 2 2 2 1 0 -0 -1 0 -0
1 -5 -5 -7 9 -4 -8 -12 11 5 1 7 -7 1 11 9 4 -1 -1 3 2 9 12 4 3 -3 3 12 6 2 1 3 -3 -1 -0 1 2 2 2 1 -1 0 2 2 2 0 -2 -2 -1
-2 -7 -3 -8 3 -10 -3 -2 -15 6 -0 10 -3 12 14 4 4 2 -5 -0 13 5 -1 7 -2 4 4 9 4 -9 -7 -11 -3 1 3 7 3 1 -0 -2 1 1 1 1 -0 0 -0 -2 -1
-2 4 2 -2 0 -12 6 -19 -10 -7 -11 -15 -5 1 -9 8 4 4 -0 -1 -3 2 10 6 4 6 2 -1 -4 4 7 10 13 5 -5 -0 0 -1 1 -2 -1 -1 2 4 0 -1 -2 -1 -1
-1 3 -4 -2 3 -3 14 -11 6 0 -8 -4 2 -9 -7 2 9 4 -1 12 6 8 -2 2 7 11 1 0 5 5 6 -4 -4 -2 -2 1 -0 0 -0 -2 1 2 2 -0 2 1 -1 -1 -1
-0 1 8 6 0 -2 2 1 13 0 8 9 10 10 3 4 7 6 8 11 2 2 -2 -3 -6 7 18 2 14 16 0 -3 -3 -1 -1 -0 3 1 2 1 -0 -2 -0 2 -1 -2 0 -1 -1
7 10 -2 -5 -5 4 2 6 12 7 6 4 3 7 -4 13 13 9 1 -5 -3 -3 2 -8 -11 66 -7 -7 1 84 7 2 11 1 5 4 3 8 5 3 2 1 -1 0 1 2 1 0 0
-6 -6 -7 -5 0 4 5 7 12 6 6 9 -11 7 10 -3 2 2 4 -0 -4 4 -0 1 34 32 0 -12 3 14 9 -3 2 68 13 -1 1 1 -1 2 2 3 -2 1 1 0 1 2 2
5 -1 3 7 0 1 1 9 5 5 0 5 -8 -13 -6 -15 0 9 2 -3 -5 13 65 1 27 24 -4 5 -0 14 19 4 2 6 2 4 -3 -1 -1 0 -2 -2 23 15 -1 0 -0 1 2
-3 -1 0 2 -4 5 6 8 -1 -0 1 7 3 5 -5 -10 -3 -0 -3 -1 -5 24 4 90 14 3 40 13 6 11 12 10 3 -3 3 3 1 2 -1 2 -2 -1 -3 -3 -1 -3 2 1 2
3 3 -2 1 5 1 2 2 2 5 0 4 13 5 1 -7 -5 -5 -5 0 -2 -2 6 7 7 11 3 15 0 -2 0 -1 -1 -2 -3 0 0 2 3 2 1 -2 2 1 -1 -2 -2 1 0
-8 -5 -3 5 5 3 4 6 11 5 1 5 14 5 5 6 -4 3 -2 -7 0 -1 -0 9 -2 -3 3 5 1 2 2 2 0 3 -0 0 2 -2 8 2 -4 2 -0 -1 1 0 0 2 1
Height
5812 5809 5808 5807 5807 5800 5800 5803 5815 5820 5819 5818 5817 5817 5821 5820 5822 5827 5829 5831 5832 5834 5836 5837 5839 5841 5842 5844 5845 5847 5848 5849 5850 5853 5855 5857 5858 5859 5861 5862 5864 5865 5866 5867 5866 5866 5866 5866 5865
5804 5802 5800 5798 5796 5792 5793 5800 5809 5816 5811 5810 5809 5809 5813 5815 5816 5821 5824 5826 5828 5830 5833 5834 5836 5838 5839 5841 5843 5845 5846 5847 5849 5852 5854 5856 5858 5859 5860 5862 5864 5865 5866 5867 5867 5867 5867 5867 5866
5795 5794 5794 5790 5786 5783 5790 5794 5804 5809 5803 5802 5802 5803 5805 5809 5812 5815 5820 5822 5823 5826 5828 5830 5832 5834 5836 5838 5840 5842 5844 5846 5848 5850 5852 5854 5856 5858 5859 5861 5863 5864 5865 5866 5867 5867 5867 5868 5868
5785 5783 5782 5781 5779 5781 5787 5788 5792 5797 5795 5792 5795 5795 5797 5802 5806 5808 5814 5816 5818 5821 5823 5826 5828 5830 5833 5835 5838 5839 5842 5843 5846 5849 5851 5853 5855 5857 5859 5861 5862 5864 5865 5866 5867 5867 5868 5868 5868
5776 5772 5769 5769 5771 5774 5777 5778 5780 5783 5783 5786 5785 5787 5791 5795 5798 5800 5806 5809 5812 5815 5817 5820 5823 5826 5829 5831 5834 5837 5838 5841 5843 5846 5849 5851 5853 5855 5858 5859 5861 5863 5864 5865 5866 5867 5868 5868 5869
5760 5760 5760 5760 5765 5766 5764 5766 5766 5769 5775 5778 5777 5778 5781 5786 5789 5793 5796 5800 5805 5809 5811 5815 5818 5821 5824 5827 5830 5833 5836 5838 5840 5844 5847 5849 5851 5853 5856 5858 5860 5861 5864 5865 5865 5866 5867 5868 5869
5748 5745 5747 5750 5751 5751 5753 5758 5757 5758 5760 5763 5770 5770 5772 5774 5779 5782 5787 5791 5796 5800 5804 5808 5811 5815 5819 5823 5826 5829 5832 5835 5837 5841 5843 5847 5849 5851 5854 5856 5858 5860 5862 5863 5865 5866 5867 5868 5868
5731 5729 5733 5737 5739 5741 5740 5744 5749 5746 5748 5750 5752 5758 5760 5766 5769 5773 5776 5780 5786 5791 5795 5800 5804 5808 5813 5818 5822 5825 5828 5831 5834 5837 5840 5844 5846 5849 5851 5854 5857 5858 5860 5862 5863 5865 5866 5867 5868
5714 5710 5717 5727 5727 5725 5721 5723 5730 5733 5733 5735 5741 5745 5750 5755 5757 5763 5765 5769 5776 5782 5786 5791 5796 5801 5807 5811 5815 5820 5823 5826 5830 5833 5837 5840 5843 5846 5849 5851 5855 5857 5858 5860 5862 5863 5865 5866 5867
5693 5693 5704 5707 5700 5702 5702 5703 5709 5718 5722 5724 5726 5732 5736 5741 5747 5751 5757 5760 5767 5774 5780 5783 5789 5794 5800 5804 5809 5814 5818 5822 5825 5829 5832 5837 5840 5842 5846 5849 5852 5854 5856 5858 5860 5861 5863 5865 5866
5674 5674 5691 5683 5678 5674 5679 5685 5689 5697 5710 5713 5714 5718 5721 5726 5736 5739 5745 5752 5757 5765 5772 5777 5781 5787 5792 5798 5803 5808 5812 5816 5820 5824 5828 5832 5836 5839 5842 5846 5848 5850 5853 5855 5858 5859 5860 5862 5864
5644 5654 5660 5659 5655 5653 5656 5661 5669 5677 5696 5695 5698 5699 5706 5710 5718 5728 5732 5739 5745 5748 5759 5766 5772 5778 5785 5790 5796 5801 5805 5810 5814 5818 5822 5827 5831 5835 5839 5842 5842 5848 5850 5853 5855 5857 5858 5859 5861
5611 5622 5623 5625 5623 5624 5630 5637 5644 5661 5670 5675 5681 5684 5689 5696 5702 5713 5720 5725 5734 5740 5747 5757 5763 5768 5775 5781 5787 5792 5798 5803 5808 5813 5816 5822 5826 5830 5835 5836 5840 5844 5847 5850 5852 5854 5856 5857 5858
5578 5574 5578 5584 5590 5589 5594 5606 5614 5647 5646 5652 5660 5667 5671 5678 5687 5697 5706 5713 5719 5728 5735 5745 5753 5759 5765 5773 5778 5784 5790 5796 5802 5807 5811 5817 5821 5825 5829 5832 5837 5840 5843 5847 5850 5852 5853 5854 5856
5531 5525 5531 5542 5549 5549 5556 5564 5585 5614 5615 5625 5635 5644 5653 5662 5671 5681 5692 5702 5710 5717 5725 5733 5742 5749 5755 5762 5769 5775 5781 5788 5795 5801 5805 5811 5816 5820 5824 5829 5833 5836 5840 5843 5846 5848 5851 5852 5853
5493 5487 5486 5501 5504 5511 5520 5528 5559 5569 5583 5593 5611 5624 5635 5646 5655 5665 5678 5688 5697 5706 5715 5722 5730 5738 5746 5754 5760 5767 5773 5780 5787 5793 5799 5805 5810 5815 5819 5824 5829 5833 5836 5839 5842 5845 5847 5849 5850
5460 5453 5455 5458 5474 5478 5489 5490 5521 5537 5545 5556 5582 5601 5615 5627 5639 5650 5662 5675 5685 5695 5703 5711 5718 5728 5737 5743 5751 5759 5765 5772 5779 5787 5793 5798 5804 5809 5813 5819 5824 5829 5831 5835 5838 5841 5843 5845 5847
5440 5437 5437 5436 5452 5448 5455 5456 5490 5504 5508 5524 5550 5570 5588 5605 5624 5635 5644 5657 5672 5681 5690 5700 5709 5718 5726 5733 5741 5748 5754 5762 5770 5778 5785 5791 5797 5803 5808 5814 5819 5824 5828 5831 5835 5837 5839 5841 5843
5427 5422 5418 5422 5428 5418 5421 5428 5452 5470 5483 5499 5520 5542 5567 5586 5599 5611 5631 5644 5658 5666 5677 5689 5698 5706 5713 5722 5730 5739 5747 5754 5762 5771 5777 5784 5790 5796 5802 5807 5813 5818 5823 5826 5829 5833 5836 5837 5838
5419 5412 5409 5406 5407 5401 5404 5408 5423 5441 5460 5480 5495 5519 5547 5566 5580 5595 5610 5627 5644 5655 5666 5677 5688 5696 5705 5715 5724 5733 5740 5748 5756 5764 5771 5778 5784 5789 5795 5801 5806 5812 5817 5822 5825 5827 5830 5832 5834
5418 5411 5406 5401 5397 5395 5394 5393 5403 5421 5438 5458 5477 5496 5522 5544 5563 5581 5593 5612 5628 5642 5655 5667 5678 5687 5697 5705 5714 5720 5728 5735 5744 5753 5762 5770 5777 5783 5788 5794 5800 5805 5810 5814 5818 5820 5823 5826 5828
5417 5410 5404 5398 5394 5391 5389 5382 5391 5403 5420 5434 5462 5480 5503 5529 5547 5566 5582 5594 5613 5631 5645 5656 5668 5678 5688 5696 5705 5714 5723 5731 5741 5750 5756 5764 5771 5777 5783 5788 5794 5799 5804 5808 5811 5814 5817 5820 5823
5414 5408 5402 5396 5390 5387 5386 5378 5387 5388 5403 5423 5448 5469 5493 5519 5535 5553 5571 5588 5599 5615 5630 5645 5657 5667 5679 5690 5698 5706 5715 5723 5731 5740 5747 5756 5763 5770 5777 5782 5787 5793 5798 5801 5805 5808 5810 5813 5816
5413 5406 5400 5394 5389 5387 5383 5381 5379 5381 5392 5408 5431 5454 5476 5504 5523 5539 5557 5573 5587 5601 5618 5632 5646 5658 5666 5680 5690 5695 5706 5716 5721 5731 5740 5747 5756 5763 5770 5776 5781 5786 5791 5795 5798 5801 5804 5807 5810
5413 5405 5399 5395 5390 5387 5383 5381 5380 5376 5380 5394 5421 5441 5460 5488 5508 5526 5543 5559 5578 5596 5613 5627 5639 5643 5658 5672 5678 5679 5696 5708 5713 5721 5731 5738 5747 5756 5763 5769 5775 5780 5784 5788 5792 5795 5798 5800 5803
5412 5406 5400 5395 5391 5389 5385 5381 5380 5376 5375 5383 5397 5416 5442 5469 5493 5512 5532 5549 5570 5592 5607 5618 5622 5631 5652 5663 5668 5675 5687 5699 5707 5703 5719 5731 5740 5747 5753 5760 5767 5773 5776 5781 5784 5788 5791 5795 5797
5415 5408 5403 5398 5393 5388 5385 5383 5379 5375 5373 5377 5393 5411 5437 5456 5476 5502 5522 5539 5562 5580 5568 5603 5616 5628 5640 5655 5663 5673 5679 5688 5699 5706 5715 5723 5732 5738 5745 5752 5758 5763 5770 5774 5777 5781 5784 5787 5790
5420 5411 5406 5399 5394 5390 5387 5383 5377 5374 5371 5376 5393 5414 5435 5455 5476 5497 5512 5529 5548 5568 5581 5593 5605 5617 5621 5640 5651 5661 5670 5679 5689 5698 5708 5717 5725 5731 5739 5746 5751 5756 5762 5767 5771 5775 5778 5781 5784
5421 5411 5407 5402 5397 5392 5388 5385 5378 5374 5374 5377 5393 5412 5437 5456 5476 5494 5511 5526 5541 5555 5569 5579 5591 5606 5619 5630 5641 5651 5662 5673 5683 5693 5702 5710 5717 5725 5733 5739 5745 5749 5755 5761 5765 5768 5771 5774 5777
5425 5415 5409 5406 5401 5396 5392 5389 5383 5379 5376 5380 5393 5408 5429 5451 5471 5491 5508 5521 5537 5551 5562 5572 5587 5601 5614 5625 5636 5647 5658 5669 5679 5689 5698 5706 5713 5719 5727 5732 5737 5742 5748 5753 5757 5760 5764 5766 5768